Time,TemperatureF,DewpointF,PressureIn,WindDirection,WindDirectionDegrees,WindSpeedMPH,WindSpeedGustMPH,Humidity,HourlyPrecipIn,Conditions,Clouds,dailyrainin,SolarRadiationWatts/m^2,SoftwareType,DateUTC
2013-04-06 00:00:00,58.5,30.9,29.71,SSW,202,6.4,9.4,35,0.00,SCT,,0.00,0.0,WeatherDisplay:10.37,2013-04-06 05:00:00,
2013-04-06 00:05:00,58.3,30.7,29.71,SSE,158,6.2,8.1,35,0.00,SCT,,0.00,0.0,WeatherDisplay:10.37,2013-04-06 05:05:00,
2013-04-06 00:10:00,58.3,30.7,29.71,SSE,158,5.9,9.2,35,0.00,SCT,,0.00,0.0,WeatherDisplay:10.37,2013-04-06 05:10:00,
2013-04-06 00:15:00,58.1,30.6,29.71,SSE,158,6.7,9.2,35,0.00,SCT,,0.00,0.0,WeatherDisplay:10.37,2013-04-06 05:15:00,
2013-04-06 00:21:00,58.1,30.6,29.71,SSE,158,5.6,8.1,35,0.00,SCT,,0.00,0.0,WeatherDisplay:10.37,2013-04-06 05:21:00,
2013-04-06 00:26:00,57.9,30.4,29.71,SSE,158,5.9,6.9,35,0.00,SCT,,0.00,0.0,WeatherDisplay:10.37,2013-04-06 05:26:00,
2013-04-06 00:31:00,57.7,30.2,29.71,SSE,158,6.0,8.1,35,0.00,SCT,,0.00,0.0,WeatherDisplay:10.37,2013-04-06 05:31:00,
2013-04-06 00:36:00,57.7,30.9,29.71,SSE,158,6.0,8.1,36,0.00,SCT,,0.00,0.0,WeatherDisplay:10.37,2013-04-06 05:36:00,
2013-04-06 00:41:00,57.6,30.8,29.71,SSE,158,7.1,10.7,36,0.00,SCT,,0.00,0.0,WeatherDisplay:10.37,2013-04-06 05:41:00,
2013-04-06 00:46:00,57.6,30.8,29.68,SSE,158,6.2,8.1,36,0.00,SCT,,0.00,0.0,WeatherDisplay:10.37,2013-04-06 05:46:00,
2013-04-06 00:51:00,57.4,30.6,29.68,SSW,202,6.7,9.0,36,0.00,SCT,,0.00,0.0,WeatherDisplay:10.37,2013-04-06 05:51:00,
2013-04-06 00:56:00,57.2,30.5,29.68,South,180,5.9,9.4,36,0.00,SCT,,0.00,0.0,WeatherDisplay:10.37,2013-04-06 05:56:00,
2013-04-06 01:01:00,57.2,30.5,29.71,SSE,158,5.6,9.2,36,0.00,SCT,,0.00,0.0,WeatherDisplay:10.37,2013-04-06 06:01:00,
2013-04-06 01:06:00,57.0,31.0,29.71,SSW,202,5.9,8.7,37,0.00,SCT,,0.00,0.0,WeatherDisplay:10.37,2013-04-06 06:06:00,
2013-04-06 01:11:00,57.0,31.0,29.71,SSW,202,6.2,10.4,37,0.00,SCT,,0.00,0.0,WeatherDisplay:10.37,2013-04-06 06:11:00,
2013-04-06 01:16:00,56.8,30.8,29.68,South,180,6.9,12.3,37,0.00,SCT,,0.00,0.0,WeatherDisplay:10.37,2013-04-06 06:16:00,
2013-04-06 01:21:00,56.8,30.8,29.68,SSE,158,5.6,8.1,37,0.00,SCT,,0.00,0.0,WeatherDisplay:10.37,2013-04-06 06:21:00,
2013-04-06 01:27:00,56.7,30.7,29.68,SSE,158,4.9,6.9,37,0.00,SCT,,0.00,0.0,WeatherDisplay:10.37,2013-04-06 06:27:00,
2013-04-06 01:32:00,56.7,30.7,29.71,SSE,158,5.6,8.1,37,0.00,SCT,,0.00,0.0,WeatherDisplay:10.37,2013-04-06 06:32:00,
2013-04-06 01:36:00,56.7,30.7,29.71,SW,225,4.7,6.9,37,0.00,SCT,,0.00,0.0,WeatherDisplay:10.37,2013-04-06 06:36:00,
2013-04-06 01:42:00,56.7,30.7,29.71,SSE,158,5.6,10.4,37,0.00,SCT,,0.00,0.0,WeatherDisplay:10.37,2013-04-06 06:42:00,
2013-04-06 01:47:00,56.7,30.7,29.68,SSE,158,3.3,6.9,37,0.00,SCT,,0.00,0.0,WeatherDisplay:10.37,2013-04-06 06:47:00,
2013-04-06 01:51:00,56.7,30.7,29.68,SSW,202,5.6,8.1,37,0.00,SCT,,0.00,0.0,WeatherDisplay:10.37,2013-04-06 06:51:00,
2013-04-06 01:57:00,56.8,30.8,29.68,SSW,202,4.0,5.8,37,0.00,SCT,,0.00,0.0,WeatherDisplay:10.37,2013-04-06 06:57:00,
2013-04-06 02:02:00,56.8,30.8,29.68,SSW,202,5.4,8.1,37,0.00,SCT,,0.00,0.0,WeatherDisplay:10.37,2013-04-06 07:02:00,
2013-04-06 02:07:00,56.8,30.8,29.68,South,180,6.0,9.2,37,0.00,SCT,,0.00,0.0,WeatherDisplay:10.37,2013-04-06 07:07:00,
2013-04-06 02:12:00,57.0,31.0,29.68,SW,225,6.0,6.9,37,0.00,SCT,,0.00,0.0,WeatherDisplay:10.37,2013-04-06 07:12:00,
2013-04-06 02:17:00,57.0,31.0,29.68,South,180,4.7,6.9,37,0.00,SCT,,0.00,0.0,WeatherDisplay:10.37,2013-04-06 07:17:00,
2013-04-06 02:22:00,57.0,31.0,29.68,SSE,158,6.0,8.1,37,0.00,SCT,,0.00,0.0,WeatherDisplay:10.37,2013-04-06 07:22:00,
2013-04-06 02:27:00,57.0,31.0,29.68,South,180,5.6,9.2,37,0.00,SCT,,0.00,0.0,WeatherDisplay:10.37,2013-04-06 07:27:00,
2013-04-06 02:32:00,57.0,31.0,29.65,South,180,5.6,8.1,37,0.00,SCT,,0.00,0.0,WeatherDisplay:10.37,2013-04-06 07:32:00,
2013-04-06 02:37:00,56.8,30.8,29.65,SSE,158,5.9,7.6,37,0.00,SCT,,0.00,0.0,WeatherDisplay:10.37,2013-04-06 07:37:00,
2013-04-06 02:42:00,56.8,30.8,29.65,WSW,248,5.6,8.1,37,0.00,SCT,,0.00,0.0,WeatherDisplay:10.37,2013-04-06 07:42:00,
2013-04-06 02:48:00,56.7,30.7,29.68,SSE,158,5.9,6.9,37,0.00,SCT,,0.00,0.0,WeatherDisplay:10.37,2013-04-06 07:48:00,
2013-04-06 02:53:00,56.7,30.7,29.68,West,270,6.0,8.1,37,0.00,SCT,,0.00,0.0,WeatherDisplay:10.37,2013-04-06 07:53:00,
2013-04-06 02:58:00,56.5,31.2,29.68,South,180,4.5,5.8,38,0.00,SCT,,0.00,0.0,WeatherDisplay:10.37,2013-04-06 07:58:00,
2013-04-06 03:04:00,56.3,31.0,29.65,SSW,202,4.7,8.1,38,0.00,SCT,,0.00,0.0,WeatherDisplay:10.37,2013-04-06 08:04:00,
2013-04-06 03:09:00,56.3,31.0,29.65,SSE,158,6.4,7.6,38,0.00,SCT,,0.00,0.0,WeatherDisplay:10.37,2013-04-06 08:09:00,
2013-04-06 03:14:00,56.3,31.0,29.65,South,180,5.6,8.1,38,0.00,SCT,,0.00,0.0,WeatherDisplay:10.37,2013-04-06 08:14:00,
2013-04-06 03:20:00,56.1,30.8,29.65,SSE,158,5.6,10.4,38,0.00,SCT,,0.00,0.0,WeatherDisplay:10.37,2013-04-06 08:20:00,
2013-04-06 03:25:00,55.9,31.3,29.65,SSE,158,7.1,10.4,39,0.00,SCT,,0.00,0.0,WeatherDisplay:10.37,2013-04-06 08:25:00,
2013-04-06 03:30:00,55.9,31.3,29.65,SSE,158,5.4,8.1,39,0.00,SCT,,0.00,0.0,WeatherDisplay:10.37,2013-04-06 08:30:00,
2013-04-06 03:35:00,55.8,31.2,29.65,SSE,158,4.3,7.4,39,0.00,SCT,,0.00,0.0,WeatherDisplay:10.37,2013-04-06 08:35:00,
2013-04-06 03:40:00,55.8,31.2,29.65,South,180,4.7,8.1,39,0.00,SCT,,0.00,0.0,WeatherDisplay:10.37,2013-04-06 08:40:00,
2013-04-06 03:45:00,55.6,31.6,29.65,SSE,158,4.0,5.8,40,0.00,SCT,,0.00,0.0,WeatherDisplay:10.37,2013-04-06 08:45:00,
2013-04-06 03:50:00,55.4,31.5,29.65,South,180,4.5,6.0,40,0.00,SCT,,0.00,0.0,WeatherDisplay:10.37,2013-04-06 08:50:00,
2013-04-06 03:55:00,55.2,31.9,29.65,SSE,158,4.5,8.1,41,0.00,SCT,,0.00,0.0,WeatherDisplay:10.37,2013-04-06 08:55:00,
2013-04-06 04:00:00,55.2,31.9,29.62,SSE,158,4.3,5.4,41,0.00,SCT,,0.00,0.0,WeatherDisplay:10.37,2013-04-06 09:00:00,
2013-04-06 04:05:00,55.2,31.9,29.62,SSE,158,5.4,5.4,41,0.00,SCT,,0.00,0.0,WeatherDisplay:10.37,2013-04-06 09:05:00,
2013-04-06 04:11:00,55.0,32.3,29.62,SSE,158,4.9,6.0,42,0.00,SCT,,0.00,0.0,WeatherDisplay:10.37,2013-04-06 09:11:00,
2013-04-06 04:16:00,54.7,32.0,29.65,South,180,5.6,5.9,42,0.00,SCT,,0.00,0.0,WeatherDisplay:10.37,2013-04-06 09:16:00,
2013-04-06 04:21:00,54.5,32.4,29.65,South,180,4.7,6.9,43,0.00,SCT,,0.00,0.0,WeatherDisplay:10.37,2013-04-06 09:21:00,
2013-04-06 04:27:00,54.3,32.8,29.65,SSW,202,2.9,6.9,44,0.00,SCT,,0.00,0.0,WeatherDisplay:10.37,2013-04-06 09:27:00,
2013-04-06 04:32:00,54.1,32.7,29.65,South,180,3.6,6.2,44,0.00,SCT,,0.00,0.0,WeatherDisplay:10.37,2013-04-06 09:32:00,
2013-04-06 04:36:00,54.1,32.7,29.65,ESE,112,3.6,5.8,44,0.00,SCT,,0.00,0.0,WeatherDisplay:10.37,2013-04-06 09:36:00,
2013-04-06 04:42:00,54.0,33.1,29.65,West,270,4.0,5.8,45,0.00,SCT,,0.00,0.0,WeatherDisplay:10.37,2013-04-06 09:42:00,
2013-04-06 04:47:00,53.8,32.9,29.65,South,180,4.7,7.1,45,0.00,SCT,,0.00,0.0,WeatherDisplay:10.37,2013-04-06 09:47:00,
2013-04-06 04:52:00,53.6,33.3,29.65,SSE,158,4.0,5.9,46,0.00,SCT,,0.00,0.0,WeatherDisplay:10.37,2013-04-06 09:52:00,
2013-04-06 04:57:00,53.6,33.3,29.65,SSE,158,4.9,5.9,46,0.00,SCT,,0.00,0.0,WeatherDisplay:10.37,2013-04-06 09:57:00,
2013-04-06 05:02:00,53.4,33.7,29.65,South,180,5.6,6.9,47,0.00,SCT,,0.00,0.0,WeatherDisplay:10.37,2013-04-06 10:02:00,
2013-04-06 05:07:00,53.4,33.7,29.65,SSE,158,6.0,8.1,47,0.00,SCT,,0.00,0.0,WeatherDisplay:10.37,2013-04-06 10:07:00,
2013-04-06 05:12:00,53.4,33.7,29.65,SSE,158,5.9,6.9,47,0.00,SCT,,0.00,0.0,WeatherDisplay:10.37,2013-04-06 10:12:00,
2013-04-06 05:17:00,53.2,33.5,29.62,South,180,7.1,9.2,47,0.00,SCT,,0.00,0.0,WeatherDisplay:10.37,2013-04-06 10:17:00,
2013-04-06 05:22:00,53.1,33.3,29.62,SSE,158,5.4,6.2,47,0.00,SCT,,0.00,0.0,WeatherDisplay:10.37,2013-04-06 10:22:00,
2013-04-06 05:27:00,52.9,33.7,29.62,ESE,112,4.3,5.8,48,0.00,SCT,,0.00,0.0,WeatherDisplay:10.37,2013-04-06 10:27:00,
2013-04-06 05:32:00,52.7,33.5,29.62,SW,225,4.0,5.8,48,0.00,SCT,,0.00,0.0,WeatherDisplay:10.37,2013-04-06 10:32:00,
2013-04-06 05:37:00,52.7,33.5,29.62,SE,135,3.3,4.6,48,0.00,SCT,,0.00,0.0,WeatherDisplay:10.37,2013-04-06 10:37:00,
2013-04-06 05:42:00,52.2,33.6,29.62,SSW,202,4.5,5.8,49,0.00,SCT,,0.00,0.0,WeatherDisplay:10.37,2013-04-06 10:42:00,
2013-04-06 05:47:00,52.0,33.4,29.62,SSE,158,4.0,6.9,49,0.00,SCT,,0.00,0.0,WeatherDisplay:10.37,2013-04-06 10:47:00,
2013-04-06 05:52:00,51.6,34.1,29.62,ESE,112,4.7,6.0,51,0.00,SCT,,0.00,0.0,WeatherDisplay:10.37,2013-04-06 10:52:00,
2013-04-06 05:58:00,51.6,34.1,29.62,ESE,112,4.5,8.1,51,0.00,SCT,,0.00,0.0,WeatherDisplay:10.37,2013-04-06 10:58:00,
2013-04-06 06:03:00,51.4,34.4,29.62,SSW,202,4.3,6.9,52,0.00,SCT,,0.00,0.0,WeatherDisplay:10.37,2013-04-06 11:03:00,
2013-04-06 06:08:00,51.3,34.2,29.62,SSW,202,4.0,5.8,52,0.00,SCT,,0.00,0.0,WeatherDisplay:10.37,2013-04-06 11:08:00,
2013-04-06 06:13:00,51.3,34.7,29.62,SSW,202,4.9,6.9,53,0.00,SCT,,0.00,0.0,WeatherDisplay:10.37,2013-04-06 11:13:00,
2013-04-06 06:19:00,51.1,34.5,29.62,SSW,202,3.6,5.8,53,0.00,SCT,,0.00,0.0,WeatherDisplay:10.37,2013-04-06 11:19:00,
2013-04-06 06:24:00,50.9,34.4,29.62,South,180,4.7,6.9,53,0.00,SCT,,0.00,0.0,WeatherDisplay:10.37,2013-04-06 11:24:00,
2013-04-06 06:30:00,50.9,34.8,29.56,SSE,158,4.3,6.9,54,0.00,SCT,,0.00,0.0,WeatherDisplay:10.37,2013-04-06 11:30:00,
2013-04-06 06:33:00,50.9,34.8,29.56,South,180,6.2,6.2,54,0.00,SCT,,0.00,228.0,WeatherDisplay:10.37,2013-04-06 11:33:00,
2013-04-06 06:38:00,50.9,34.8,29.56,SSE,158,3.6,6.9,54,0.00,SCT,,0.00,0.0,WeatherDisplay:10.37,2013-04-06 11:38:00,
2013-04-06 06:43:00,50.7,34.7,29.56,ESE,112,3.8,5.8,54,0.00,SCT,,0.00,0.0,WeatherDisplay:10.37,2013-04-06 11:43:00,
2013-04-06 06:48:00,50.7,35.1,29.62,SSE,158,4.5,5.8,55,0.00,SCT,,0.00,0.0,WeatherDisplay:10.37,2013-04-06 11:48:00,
2013-04-06 06:53:00,50.5,35.0,29.62,South,180,2.6,5.8,55,0.00,SCT,,0.00,0.0,WeatherDisplay:10.37,2013-04-06 11:53:00,
2013-04-06 06:58:00,50.5,35.0,29.62,South,180,2.9,4.6,55,0.00,SCT,,0.00,0.0,WeatherDisplay:10.37,2013-04-06 11:58:00,
2013-04-06 07:03:00,50.4,35.2,29.56,WSW,248,3.6,4.6,56,0.00,CLR,SCT,0.00,0.0,WeatherDisplay:10.37,2013-04-06 12:03:00,
2013-04-06 07:08:00,50.2,35.5,29.56,WSW,248,3.1,4.6,57,0.00,CLR,SCT,0.00,0.0,WeatherDisplay:10.37,2013-04-06 12:08:00,
2013-04-06 07:13:00,50.2,35.5,29.56,SSW,202,4.5,5.8,57,0.00,CLR,SCT,0.00,0.0,WeatherDisplay:10.37,2013-04-06 12:13:00,
2013-04-06 07:19:00,50.2,35.5,29.56,SSW,202,3.1,6.9,57,0.00,CLR,SCT,0.00,0.0,WeatherDisplay:10.37,2013-04-06 12:19:00,
2013-04-06 07:24:00,50.2,35.5,29.56,ESE,112,4.0,5.8,57,0.00,CLR,SCT,0.00,0.0,WeatherDisplay:10.37,2013-04-06 12:24:00,
2013-04-06 07:29:00,50.2,36.0,29.59,SSE,158,4.5,8.1,58,0.00,CLR,SCT,0.00,0.0,WeatherDisplay:10.37,2013-04-06 12:29:00,
2013-04-06 07:34:00,50.2,36.4,29.59,SSW,202,4.7,8.1,59,0.00,CLR,SCT,0.00,0.0,WeatherDisplay:10.37,2013-04-06 12:34:00,
2013-04-06 07:39:00,50.4,36.6,29.59,SSE,158,3.8,5.8,59,0.00,CLR,SCT,0.00,0.0,WeatherDisplay:10.37,2013-04-06 12:39:00,
2013-04-06 07:44:00,50.5,37.2,29.59,SSW,202,4.9,8.1,60,0.00,CLR,SCT,0.00,0.0,WeatherDisplay:10.37,2013-04-06 12:44:00,
2013-04-06 07:50:00,50.7,37.3,29.59,SW,225,4.0,4.9,60,0.00,CLR,SCT,0.00,0.0,WeatherDisplay:10.37,2013-04-06 12:50:00,
2013-04-06 07:55:00,50.9,37.9,29.59,SSE,158,2.9,5.8,61,0.00,CLR,SCT,0.00,0.0,WeatherDisplay:10.37,2013-04-06 12:55:00,
2013-04-06 07:59:00,51.1,37.7,29.59,South,180,4.0,4.6,60,0.00,OVC,SCT,0.00,0.0,WeatherDisplay:10.37,2013-04-06 12:59:00,
2013-04-06 08:05:00,51.3,38.3,29.59,SSW,202,4.9,8.1,61,0.00,BKN,SCT,0.00,0.0,WeatherDisplay:10.37,2013-04-06 13:05:00,
2013-04-06 08:10:00,51.6,38.6,29.59,South,180,4.3,6.2,61,0.00,OVC,SCT,0.00,0.0,WeatherDisplay:10.37,2013-04-06 13:10:00,
2013-04-06 08:15:00,52.0,38.5,29.59,South,174,3.0,8.0,60,0.00,OVC,SCT,0.00,0.0,WeatherDisplay:10.37,2013-04-06 13:15:00,
2013-04-06 08:20:00,52.3,38.9,29.59,SSE,158,4.9,6.9,60,0.00,OVC,SCT,0.00,0.0,WeatherDisplay:10.37,2013-04-06 13:20:00,
2013-04-06 08:25:00,52.5,39.0,29.59,SSE,158,3.8,5.8,60,0.00,OVC,SCT,0.00,0.0,WeatherDisplay:10.37,2013-04-06 13:25:00,
2013-04-06 08:30:00,52.9,38.9,29.59,SSE,158,3.8,5.8,59,0.00,OVC,SCT,0.00,0.0,WeatherDisplay:10.37,2013-04-06 13:30:00,
2013-04-06 08:35:00,53.1,39.1,29.59,South,180,3.3,8.5,59,0.00,OVC,SCT,0.00,0.0,WeatherDisplay:10.37,2013-04-06 13:35:00,
2013-04-06 08:40:00,53.4,39.0,29.59,WSW,248,4.3,5.9,58,0.00,OVC,SCT,0.00,0.0,WeatherDisplay:10.37,2013-04-06 13:40:00,
2013-04-06 08:45:00,54.0,39.1,29.56,SSW,202,4.7,8.5,57,0.00,OVC,SCT,0.00,0.0,WeatherDisplay:10.37,2013-04-06 13:45:00,
2013-04-06 08:50:00,54.3,38.9,29.56,SSE,158,5.9,8.1,56,0.00,OVC,SCT,0.00,0.0,WeatherDisplay:10.37,2013-04-06 13:50:00,
2013-04-06 08:55:00,54.7,39.3,29.56,SSW,202,6.0,9.7,56,0.00,OVC,SCT,0.00,0.0,WeatherDisplay:10.37,2013-04-06 13:55:00,
2013-04-06 09:00:00,55.0,39.6,29.56,WSW,248,4.9,6.9,56,0.00,OVC,SCT,0.00,0.0,WeatherDisplay:10.37,2013-04-06 14:00:00,
2013-04-06 09:06:00,55.6,39.2,29.56,SSW,202,6.4,6.9,54,0.00,OVC,SCT,0.00,0.0,WeatherDisplay:10.37,2013-04-06 14:06:00,
2013-04-06 09:11:00,56.3,39.4,29.56,SSW,202,7.1,10.0,53,0.00,OVC,SCT,0.00,0.0,WeatherDisplay:10.37,2013-04-06 14:11:00,
2013-04-06 09:17:00,56.8,40.4,29.56,WSW,248,6.0,9.2,54,0.00,OVC,SCT,0.00,0.0,WeatherDisplay:10.37,2013-04-06 14:17:00,
2013-04-06 09:22:00,57.4,39.4,29.56,SSW,202,8.1,10.5,51,0.00,OVC,SCT,0.00,0.0,WeatherDisplay:10.37,2013-04-06 14:22:00,
2013-04-06 09:28:00,57.4,39.9,29.56,West,270,9.0,10.7,52,0.00,OVC,SCT,0.00,0.0,WeatherDisplay:10.37,2013-04-06 14:28:00,
2013-04-06 09:33:00,57.0,39.1,29.56,WSW,248,12.1,15.0,51,0.00,OVC,SCT,0.00,0.0,WeatherDisplay:10.37,2013-04-06 14:33:00,
2013-04-06 09:38:00,56.8,39.4,29.56,WSW,248,10.5,13.5,52,0.00,OVC,SCT,0.00,0.0,WeatherDisplay:10.37,2013-04-06 14:38:00,
2013-04-06 09:44:00,56.3,38.4,29.59,WSW,248,10.2,12.7,51,0.00,OVC,SCT,0.00,0.0,WeatherDisplay:10.37,2013-04-06 14:44:00,
2013-04-06 09:49:00,56.1,39.2,29.59,WSW,248,9.0,13.8,53,0.00,OVC,SCT,0.00,0.0,WeatherDisplay:10.37,2013-04-06 14:49:00,
2013-04-06 09:55:00,55.9,39.0,29.59,WNW,292,8.5,10.7,53,0.00,OVC,SCT,0.00,0.0,WeatherDisplay:10.37,2013-04-06 14:55:00,
2013-04-06 09:59:00,55.8,38.9,29.59,WNW,292,4.7,8.1,53,0.00,OVC,SCT,0.00,0.0,WeatherDisplay:10.37,2013-04-06 14:59:00,
2013-04-06 10:05:00,55.2,38.4,29.59,WNW,292,6.2,10.9,53,0.00,OVC,SCT,0.00,0.0,WeatherDisplay:10.37,2013-04-06 15:05:00,
2013-04-06 10:10:00,55.2,38.9,29.59,WNW,292,6.7,9.2,54,0.00,OVC,SCT,0.00,0.0,WeatherDisplay:10.37,2013-04-06 15:10:00,
2013-04-06 10:15:00,55.4,38.1,29.59,WNW,292,7.1,9.2,52,0.00,OVC,SCT,0.00,0.0,WeatherDisplay:10.37,2013-04-06 15:15:00,
2013-04-06 10:20:00,55.2,36.9,29.59,WNW,292,5.4,7.1,50,0.00,OVC,SCT,0.00,0.0,WeatherDisplay:10.37,2013-04-06 15:20:00,
2013-04-06 10:25:00,55.2,37.4,29.59,WNW,292,5.6,10.4,51,0.00,OVC,SCT,0.00,0.0,WeatherDisplay:10.37,2013-04-06 15:25:00,
2013-04-06 10:30:00,55.0,36.2,29.62,NW,315,4.5,12.7,49,0.00,OVC,SCT,0.00,0.0,WeatherDisplay:10.37,2013-04-06 15:30:00,
2013-04-06 10:35:00,54.5,34.1,29.62,SSW,202,6.0,10.4,46,0.00,OVC,SCT,0.00,0.0,WeatherDisplay:10.37,2013-04-06 15:35:00,
2013-04-06 10:40:00,53.6,31.6,29.62,NNW,338,6.0,10.2,43,0.00,OVC,SCT,0.00,0.0,WeatherDisplay:10.37,2013-04-06 15:40:00,
2013-04-06 10:45:00,53.4,30.9,29.62,NNW,338,7.4,12.1,42,0.00,OVC,SCT,0.00,0.0,WeatherDisplay:10.37,2013-04-06 15:45:00,
2013-04-06 10:50:00,53.8,31.2,29.62,West,270,4.3,8.1,42,0.00,OVC,SCT,0.00,100.0,WeatherDisplay:10.37,2013-04-06 15:50:00,
2013-04-06 10:55:00,53.6,30.4,29.62,NNE,22,6.4,10.7,41,0.00,OVC,SCT,0.00,0.0,WeatherDisplay:10.37,2013-04-06 15:55:00,
2013-04-06 11:01:00,54.3,30.5,29.59,NNW,338,7.6,10.4,40,0.00,OVC,SCT,0.00,200.0,WeatherDisplay:10.37,2013-04-06 16:01:00,
2013-04-06 11:06:00,54.7,30.2,29.59,West,270,10.5,13.2,39,0.00,OVC,SCT,0.00,100.0,WeatherDisplay:10.37,2013-04-06 16:06:00,
2013-04-06 11:11:00,54.3,29.9,29.59,North,0,5.4,8.1,39,0.00,OVC,SCT,0.00,0.0,WeatherDisplay:10.37,2013-04-06 16:11:00,
2013-04-06 11:16:00,54.5,31.3,29.62,East,90,3.8,5.8,41,0.00,OVC,SCT,0.00,100.0,WeatherDisplay:10.37,2013-04-06 16:16:00,
2013-04-06 11:21:00,55.9,31.9,29.62,WNW,292,6.2,8.1,40,0.00,OVC,SCT,0.00,200.0,WeatherDisplay:10.37,2013-04-06 16:21:00,
2013-04-06 11:27:00,55.9,31.3,29.62,West,270,4.9,8.1,39,0.00,OVC,SCT,0.00,100.0,WeatherDisplay:10.37,2013-04-06 16:27:00,
2013-04-06 11:32:00,56.5,31.2,29.62,NW,315,5.4,9.2,38,0.00,OVC,SCT,0.00,100.0,WeatherDisplay:10.37,2013-04-06 16:32:00,
2013-04-06 11:37:00,56.1,30.8,29.62,WNW,292,4.7,8.1,38,0.00,OVC,SCT,0.00,0.0,WeatherDisplay:10.37,2013-04-06 16:37:00,
2013-04-06 11:42:00,55.4,29.5,29.62,WNW,292,4.3,5.8,37,0.00,OVC,SCT,0.00,0.0,WeatherDisplay:10.37,2013-04-06 16:42:00,
2013-04-06 11:47:00,54.5,29.4,29.65,NNW,338,4.5,6.9,38,0.00,OVC,SCT,0.00,0.0,WeatherDisplay:10.37,2013-04-06 16:47:00,
2013-04-06 11:52:00,53.8,30.6,29.65,North,0,4.5,5.9,41,0.00,OVC,SCT,0.00,0.0,WeatherDisplay:10.37,2013-04-06 16:52:00,
2013-04-06 11:57:00,52.9,32.6,29.65,NNW,338,4.5,9.2,46,0.00,OVC,SCT,0.00,0.0,WeatherDisplay:10.37,2013-04-06 16:57:00,
2013-04-06 12:02:00,52.5,32.9,29.62,NNW,338,5.9,10.4,47,0.00,OVC,SCT,0.00,100.0,WeatherDisplay:10.37,2013-04-06 17:02:00,
2013-04-06 12:07:00,52.5,33.9,29.62,NNW,338,5.9,9.2,49,0.00,OVC,SCT,0.00,0.0,WeatherDisplay:10.37,2013-04-06 17:07:00,
2013-04-06 12:12:00,52.2,32.5,29.62,SSW,202,6.2,8.5,47,0.00,OVC,SCT,0.00,0.0,WeatherDisplay:10.37,2013-04-06 17:12:00,
2013-04-06 12:17:00,52.3,33.2,29.68,West,270,7.1,13.0,48,0.00,OVC,SCT,0.00,100.0,WeatherDisplay:10.37,2013-04-06 17:17:00,
2013-04-06 12:23:00,52.5,32.3,29.68,WNW,292,4.5,9.2,46,0.00,OVC,SCT,0.00,200.0,WeatherDisplay:10.37,2013-04-06 17:23:00,
2013-04-06 12:28:00,53.1,32.8,29.68,NW,315,6.9,10.4,46,0.00,OVC,SCT,0.00,200.0,WeatherDisplay:10.37,2013-04-06 17:28:00,
2013-04-06 12:33:00,54.0,33.1,29.65,West,270,6.0,10.4,45,0.00,OVC,SCT,0.00,300.0,WeatherDisplay:10.37,2013-04-06 17:33:00,
2013-04-06 12:39:00,55.8,34.7,29.65,North,0,7.8,11.5,45,0.00,OVC,SCT,0.00,300.0,WeatherDisplay:10.37,2013-04-06 17:39:00,
2013-04-06 12:45:00,56.5,35.9,29.68,West,270,8.5,10.4,46,0.00,OVC,SCT,0.00,300.0,WeatherDisplay:10.37,2013-04-06 17:45:00,
2013-04-06 12:50:00,56.8,35.1,29.68,WNW,292,6.7,12.7,44,0.00,OVC,SCT,0.00,300.0,WeatherDisplay:10.37,2013-04-06 17:50:00,
2013-04-06 12:55:00,57.6,34.6,29.68,WNW,292,7.1,9.2,42,0.00,OVC,SCT,0.00,300.0,WeatherDisplay:10.37,2013-04-06 17:55:00,
2013-04-06 13:00:00,57.9,34.9,29.65,North,0,5.4,6.9,42,0.00,OVC,SCT,0.00,300.0,WeatherDisplay:10.37,2013-04-06 18:00:00,
2013-04-06 13:05:00,58.6,34.4,29.65,WNW,292,6.0,6.0,40,0.00,OVC,SCT,0.00,300.0,WeatherDisplay:10.37,2013-04-06 18:05:00,
2013-04-06 13:10:00,59.2,33.6,29.65,North,0,5.4,9.2,38,0.00,OVC,SCT,0.00,300.0,WeatherDisplay:10.37,2013-04-06 18:10:00,
2013-04-06 13:15:00,60.3,33.9,29.65,NNW,338,5.6,8.1,37,0.00,OVC,SCT,0.00,300.0,WeatherDisplay:10.37,2013-04-06 18:15:00,
2013-04-06 13:21:00,60.8,33.7,29.65,WSW,248,7.8,12.7,36,0.00,OVC,SCT,0.00,300.0,WeatherDisplay:10.37,2013-04-06 18:21:00,
2013-04-06 13:26:00,62.1,34.8,29.65,NNE,22,4.7,7.8,36,0.00,OVC,SCT,0.00,300.0,WeatherDisplay:10.37,2013-04-06 18:26:00,
2013-04-06 13:31:00,62.6,34.5,29.65,WNW,292,4.9,9.2,35,0.00,OVC,SCT,0.00,300.0,WeatherDisplay:10.37,2013-04-06 18:31:00,
2013-04-06 13:37:00,63.3,34.4,29.65,WNW,292,5.4,8.1,34,0.00,OVC,SCT,0.00,300.0,WeatherDisplay:10.37,2013-04-06 18:37:00,
2013-04-06 13:42:00,63.9,34.9,29.65,North,0,4.5,8.1,34,0.00,OVC,SCT,0.00,300.0,WeatherDisplay:10.37,2013-04-06 18:42:00,
2013-04-06 13:47:00,64.0,35.1,29.62,NNE,22,9.2,12.8,34,0.00,OVC,SCT,0.00,300.0,WeatherDisplay:10.37,2013-04-06 18:47:00,
2013-04-06 13:52:00,64.8,35.0,29.62,NNE,22,8.1,10.4,33,0.00,OVC,SCT,0.00,300.0,WeatherDisplay:10.37,2013-04-06 18:52:00,
2013-04-06 13:57:00,64.9,35.1,29.62,NW,315,6.9,11.5,33,0.00,OVC,SCT,0.00,300.0,WeatherDisplay:10.37,2013-04-06 18:57:00,
2013-04-06 14:02:00,65.5,34.8,29.65,NNW,338,7.4,9.8,32,0.00,OVC,SCT,0.00,300.0,WeatherDisplay:10.37,2013-04-06 19:02:00,
2013-04-06 14:07:00,65.8,35.9,29.65,NNW,338,6.2,10.2,33,0.00,OVC,SCT,0.00,100.0,WeatherDisplay:10.37,2013-04-06 19:07:00,
2013-04-06 14:13:00,66.0,36.1,29.65,NNE,22,6.2,6.9,33,0.00,OVC,SCT,0.00,300.0,WeatherDisplay:10.37,2013-04-06 19:13:00,
2013-04-06 14:18:00,66.4,34.0,29.65,WNW,292,5.4,6.0,30,0.00,OVC,SCT,0.00,300.0,WeatherDisplay:10.37,2013-04-06 19:18:00,
2013-04-06 14:23:00,66.6,35.0,29.65,WNW,292,6.2,9.2,31,0.00,OVC,SCT,0.00,300.0,WeatherDisplay:10.37,2013-04-06 19:23:00,
2013-04-06 14:28:00,66.9,33.6,29.65,West,270,8.5,11.5,29,0.00,OVC,SCT,0.00,300.0,WeatherDisplay:10.37,2013-04-06 19:28:00,
2013-04-06 14:33:00,66.7,33.4,29.65,WNW,292,8.1,13.8,29,0.00,OVC,SCT,0.00,300.0,WeatherDisplay:10.37,2013-04-06 19:33:00,
2013-04-06 14:38:00,68.0,33.7,29.65,NNE,22,4.5,10.0,28,0.00,OVC,SCT,0.00,300.0,WeatherDisplay:10.37,2013-04-06 19:38:00,
2013-04-06 14:43:00,68.2,33.8,29.65,West,270,6.0,11.5,28,0.00,OVC,SCT,0.00,100.0,WeatherDisplay:10.37,2013-04-06 19:43:00,
2013-04-06 14:49:00,68.0,32.7,29.65,NNW,338,5.9,5.9,27,0.00,OVC,SCT,0.00,300.0,WeatherDisplay:10.37,2013-04-06 19:49:00,
2013-04-06 14:55:00,68.4,32.1,29.65,NNW,338,7.4,10.4,26,0.00,OVC,SCT,0.00,0.0,WeatherDisplay:10.37,2013-04-06 19:55:00,
2013-04-06 14:59:00,67.6,32.4,29.62,NW,315,5.9,9.2,27,0.00,OVC,SCT,0.00,300.0,WeatherDisplay:10.37,2013-04-06 19:59:00,
2013-04-06 15:05:00,68.5,33.2,29.62,North,0,7.6,15.0,27,0.00,OVC,SCT,0.00,300.0,WeatherDisplay:10.37,2013-04-06 20:05:00,
2013-04-06 15:10:00,68.5,32.3,29.62,West,270,6.9,17.3,26,0.00,OVC,SCT,0.00,300.0,WeatherDisplay:10.37,2013-04-06 20:10:00,
2013-04-06 15:15:00,69.1,32.7,29.65,North,0,7.8,10.4,26,0.00,OVC,SCT,0.00,200.0,WeatherDisplay:10.37,2013-04-06 20:15:00,
2013-04-06 15:20:00,68.9,32.6,29.65,NW,315,6.4,15.0,26,0.00,OVC,SCT,0.00,100.0,WeatherDisplay:10.37,2013-04-06 20:20:00,
2013-04-06 15:25:00,68.9,31.6,29.65,West,270,6.4,9.7,25,0.00,OVC,SCT,0.00,200.0,WeatherDisplay:10.37,2013-04-06 20:25:00,
2013-04-06 15:30:00,68.9,32.6,29.62,NW,315,7.1,10.5,26,0.00,OVC,SCT,0.00,0.0,WeatherDisplay:10.37,2013-04-06 20:30:00,
2013-04-06 15:35:00,69.6,33.2,29.62,WSW,248,6.0,7.1,26,0.00,OVC,SCT,0.00,200.0,WeatherDisplay:10.37,2013-04-06 20:35:00,
2013-04-06 15:40:00,69.6,32.2,29.62,WNW,292,6.0,10.4,25,0.00,OVC,SCT,0.00,200.0,WeatherDisplay:10.37,2013-04-06 20:40:00,
2013-04-06 15:46:00,70.2,31.7,29.65,WNW,292,5.9,8.5,24,0.00,OVC,SCT,0.00,200.0,WeatherDisplay:10.37,2013-04-06 20:46:00,
2013-04-06 15:51:00,70.3,31.8,29.65,NNW,338,4.7,6.0,24,0.00,OVC,SCT,0.00,0.0,WeatherDisplay:10.37,2013-04-06 20:51:00,
2013-04-06 15:56:00,69.6,32.2,29.65,WNW,292,5.4,8.1,25,0.00,OVC,SCT,0.00,200.0,WeatherDisplay:10.37,2013-04-06 20:56:00,
2013-04-06 16:01:00,69.1,30.7,29.65,ENE,68,7.1,8.1,24,0.00,OVC,SCT,0.00,100.0,WeatherDisplay:10.37,2013-04-06 21:01:00,
2013-04-06 16:06:00,68.7,31.4,29.65,WNW,292,4.0,10.4,25,0.00,OVC,SCT,0.00,0.0,WeatherDisplay:10.37,2013-04-06 21:06:00,
2013-04-06 16:11:00,68.4,30.1,29.65,NNW,338,4.9,10.5,24,0.00,OVC,SCT,0.00,0.0,WeatherDisplay:10.37,2013-04-06 21:11:00,
2013-04-06 16:16:00,68.2,30.0,29.65,NNW,338,5.9,9.2,24,0.00,OVC,SCT,0.00,0.0,WeatherDisplay:10.37,2013-04-06 21:16:00,
2013-04-06 16:21:00,68.5,31.3,29.65,WNW,292,5.4,8.1,25,0.00,OVC,SCT,0.00,100.0,WeatherDisplay:10.37,2013-04-06 21:21:00,
2013-04-06 16:26:00,68.2,30.0,29.65,NNW,338,7.6,12.8,24,0.00,OVC,SCT,0.00,100.0,WeatherDisplay:10.37,2013-04-06 21:26:00,
2013-04-06 16:31:00,68.5,31.3,29.65,NW,315,3.6,12.7,25,0.00,OVC,SCT,0.00,100.0,WeatherDisplay:10.37,2013-04-06 21:31:00,
2013-04-06 16:36:00,69.1,30.7,29.65,NNW,338,5.6,9.2,24,0.00,OVC,SCT,0.00,100.0,WeatherDisplay:10.37,2013-04-06 21:36:00,
2013-04-06 16:42:00,68.5,30.3,29.65,West,270,7.6,13.8,24,0.00,OVC,SCT,0.00,0.0,WeatherDisplay:10.37,2013-04-06 21:42:00,
2013-04-06 16:46:00,68.4,30.1,29.65,WSW,248,8.7,10.7,24,0.00,OVC,SCT,0.00,100.0,WeatherDisplay:10.37,2013-04-06 21:46:00,
2013-04-06 16:52:00,68.9,31.6,29.65,SSW,202,7.1,10.4,25,0.00,OVC,SCT,0.00,100.0,WeatherDisplay:10.37,2013-04-06 21:52:00,
2013-04-06 16:57:00,69.6,31.2,29.65,WNW,292,7.4,9.2,24,0.00,OVC,SCT,0.00,0.0,WeatherDisplay:10.37,2013-04-06 21:57:00,
2013-04-06 17:02:00,69.6,31.2,29.65,SSE,158,6.9,14.3,24,0.00,OVC,SCT,0.00,0.0,WeatherDisplay:10.37,2013-04-06 22:02:00,
2013-04-06 17:07:00,69.4,31.0,29.65,WNW,292,6.7,9.2,24,0.00,OVC,SCT,0.00,0.0,WeatherDisplay:10.37,2013-04-06 22:07:00,
2013-04-06 17:12:00,69.6,31.2,29.65,ESE,112,6.4,10.4,24,0.00,OVC,SCT,0.00,0.0,WeatherDisplay:10.37,2013-04-06 22:12:00,
2013-04-06 17:17:00,69.4,31.0,29.65,West,270,5.6,5.8,24,0.00,OVC,SCT,0.00,0.0,WeatherDisplay:10.37,2013-04-06 22:17:00,
2013-04-06 17:22:00,69.4,31.0,29.65,WNW,292,5.9,9.2,24,0.00,OVC,SCT,0.00,0.0,WeatherDisplay:10.37,2013-04-06 22:22:00,
2013-04-06 17:27:00,69.4,31.0,29.65,SW,225,6.4,9.2,24,0.00,OVC,SCT,0.00,0.0,WeatherDisplay:10.37,2013-04-06 22:27:00,
2013-04-06 17:33:00,69.6,31.2,29.68,NNW,338,6.4,10.4,24,0.00,OVC,SCT,0.00,0.0,WeatherDisplay:10.37,2013-04-06 22:33:00,
2013-04-06 17:38:00,69.6,31.2,29.68,ENE,68,5.6,12.7,24,0.00,OVC,SCT,0.00,0.0,WeatherDisplay:10.37,2013-04-06 22:38:00,
2013-04-06 17:43:00,69.6,31.2,29.68,WNW,292,7.8,13.8,24,0.00,OVC,SCT,0.00,0.0,WeatherDisplay:10.37,2013-04-06 22:43:00,
2013-04-06 17:48:00,69.8,31.4,29.71,West,270,4.0,6.9,24,0.00,OVC,SCT,0.00,0.0,WeatherDisplay:10.37,2013-04-06 22:48:00,
2013-04-06 17:53:00,70.2,31.7,29.71,NW,315,3.6,5.9,24,0.00,OVC,SCT,0.00,0.0,WeatherDisplay:10.37,2013-04-06 22:53:00,
2013-04-06 17:59:00,70.3,31.8,29.71,NW,315,4.7,7.4,24,0.00,OVC,SCT,0.00,0.0,WeatherDisplay:10.37,2013-04-06 22:59:00,
2013-04-06 18:04:00,70.0,30.5,29.71,NNW,338,9.0,12.7,23,0.00,OVC,SCT,0.00,0.0,WeatherDisplay:10.37,2013-04-06 23:04:00,
2013-04-06 18:09:00,70.0,30.5,29.71,West,270,6.0,9.2,23,0.00,OVC,SCT,0.00,0.0,WeatherDisplay:10.37,2013-04-06 23:09:00,
2013-04-06 18:14:00,69.6,31.2,29.71,WNW,292,6.0,11.5,24,0.00,OVC,SCT,0.00,0.0,WeatherDisplay:10.37,2013-04-06 23:14:00,
2013-04-06 18:19:00,69.8,30.3,29.71,West,270,4.5,8.1,23,0.00,OVC,SCT,0.00,0.0,WeatherDisplay:10.37,2013-04-06 23:19:00,
2013-04-06 18:24:00,69.6,30.1,29.71,NW,315,4.7,8.1,23,0.00,OVC,SCT,0.00,0.0,WeatherDisplay:10.37,2013-04-06 23:24:00,
2013-04-06 18:30:00,69.4,31.0,29.68,NNE,22,6.2,9.2,24,0.00,OVC,SCT,0.00,0.0,WeatherDisplay:10.37,2013-04-06 23:30:00,
2013-04-06 18:35:00,69.3,29.8,29.68,NW,315,4.7,6.2,23,0.00,OVC,SCT,0.00,0.0,WeatherDisplay:10.37,2013-04-06 23:35:00,
2013-04-06 18:40:00,69.1,30.7,29.68,NNW,338,3.1,4.6,24,0.00,OVC,SCT,0.00,0.0,WeatherDisplay:10.37,2013-04-06 23:40:00,
2013-04-06 18:45:00,68.7,30.4,29.71,WNW,292,2.6,4.6,24,0.00,OVC,SCT,0.00,0.0,WeatherDisplay:10.37,2013-04-06 23:45:00,
2013-04-06 18:50:00,68.4,29.1,29.71,NNW,338,6.4,8.1,23,0.00,OVC,SCT,0.00,0.0,WeatherDisplay:10.37,2013-04-06 23:50:00,
2013-04-06 18:55:00,68.0,29.8,29.71,West,270,2.9,4.6,24,0.00,OVC,SCT,0.00,0.0,WeatherDisplay:10.37,2013-04-06 23:55:00,
2013-04-06 19:00:00,67.8,29.7,29.71,West,270,2.6,4.6,24,0.00,OVC,SCT,0.00,0.0,WeatherDisplay:10.37,2013-04-07 00:00:00,
2013-04-06 19:06:00,68.0,29.8,29.71,West,270,2.9,4.6,24,0.00,SCT,,0.00,0.0,WeatherDisplay:10.37,2013-04-07 00:06:00,
2013-04-06 19:11:00,67.8,29.7,29.71,NNW,338,1.1,2.3,24,0.00,SCT,,0.00,0.0,WeatherDisplay:10.37,2013-04-07 00:11:00,
2013-04-06 19:16:00,67.3,29.2,29.71,WNW,292,2.4,3.1,24,0.00,SCT,,0.00,0.0,WeatherDisplay:10.37,2013-04-07 00:16:00,
2013-04-06 19:21:00,67.1,29.1,29.71,NNW,338,1.4,2.3,24,0.00,SCT,,0.00,0.0,WeatherDisplay:10.37,2013-04-07 00:21:00,
2013-04-06 19:27:00,66.7,28.8,29.71,NW,315,1.4,2.3,24,0.00,SCT,,0.00,0.0,WeatherDisplay:10.37,2013-04-07 00:27:00,
2013-04-06 19:31:00,66.6,28.6,29.71,NNW,338,1.4,3.5,24,0.00,SCT,,0.00,0.0,WeatherDisplay:10.37,2013-04-07 00:31:00,
2013-04-06 19:37:00,66.2,28.3,29.71,NNW,338,0.0,1.4,24,0.00,FEW,SCT,0.00,0.0,WeatherDisplay:10.37,2013-04-07 00:37:00,
2013-04-06 19:42:00,65.8,29.0,29.71,NNW,338,0.0,2.3,25,0.00,FEW,SCT,0.00,0.0,WeatherDisplay:10.37,2013-04-07 00:42:00,
2013-04-06 19:47:00,65.5,28.7,29.68,NNW,338,0.0,0.0,25,0.00,FEW,SCT,0.00,0.0,WeatherDisplay:10.37,2013-04-07 00:47:00,
2013-04-06 19:52:00,65.1,28.4,29.68,NNW,338,0.0,0.0,25,0.00,CLR,SCT,0.00,0.0,WeatherDisplay:10.37,2013-04-07 00:52:00,
2013-04-06 19:58:00,64.9,28.2,29.68,NNW,338,0.0,0.0,25,0.00,CLR,SCT,0.00,0.0,WeatherDisplay:10.37,2013-04-07 00:58:00,
2013-04-06 20:03:00,64.2,28.6,29.71,South,180,0.0,1.1,26,0.00,CLR,SCT,0.00,0.0,WeatherDisplay:10.37,2013-04-07 01:03:00,
2013-04-06 20:08:00,63.9,28.3,29.71,South,180,0.0,0.0,26,0.00,CLR,SCT,0.00,0.0,WeatherDisplay:10.37,2013-04-07 01:08:00,
2013-04-06 20:13:00,63.7,28.1,29.71,South,180,0.0,0.0,26,0.00,CLR,SCT,0.00,0.0,WeatherDisplay:10.37,2013-04-07 01:13:00,
2013-04-06 20:19:00,63.0,27.5,29.71,South,180,0.0,0.0,26,0.00,CLR,SCT,0.00,0.0,WeatherDisplay:10.37,2013-04-07 01:19:00,
2013-04-06 20:24:00,62.4,28.0,29.71,South,180,0.0,0.0,27,0.00,CLR,SCT,0.00,0.0,WeatherDisplay:10.37,2013-04-07 01:24:00,
2013-04-06 20:30:00,61.9,27.5,29.71,NNE,22,1.1,4.6,27,0.00,CLR,SCT,0.00,0.0,WeatherDisplay:10.37,2013-04-07 01:30:00,
2013-04-06 20:35:00,61.9,28.4,29.71,NNE,22,0.0,2.3,28,0.00,CLR,SCT,0.00,0.0,WeatherDisplay:10.37,2013-04-07 01:35:00,
2013-04-06 20:40:00,61.7,29.1,29.71,WNW,292,1.1,2.6,29,0.00,CLR,SCT,0.00,0.0,WeatherDisplay:10.37,2013-04-07 01:40:00,
2013-04-06 20:45:00,61.5,28.9,29.74,NNW,338,0.9,1.6,29,0.00,CLR,SCT,0.00,0.0,WeatherDisplay:10.37,2013-04-07 01:45:00,
2013-04-06 20:50:00,61.3,29.6,29.74,NNE,22,1.1,2.3,30,0.00,CLR,SCT,0.00,0.0,WeatherDisplay:10.37,2013-04-07 01:50:00,
2013-04-06 20:55:00,61.0,30.1,29.74,NNE,22,1.1,2.3,31,0.00,CLR,SCT,0.00,0.0,WeatherDisplay:10.37,2013-04-07 01:55:00,
2013-04-06 21:00:00,60.8,30.7,29.74,NNE,22,0.0,0.0,32,0.00,CLR,SCT,0.00,0.0,WeatherDisplay:10.37,2013-04-07 02:00:00,
2013-04-06 21:05:00,60.6,30.6,29.74,NNW,338,0.0,0.0,32,0.00,CLR,SCT,0.00,0.0,WeatherDisplay:10.37,2013-04-07 02:05:00,
2013-04-06 21:10:00,60.3,31.0,29.74,NNW,338,0.0,0.0,33,0.00,CLR,SCT,0.00,0.0,WeatherDisplay:10.37,2013-04-07 02:10:00,
2013-04-06 21:15:00,60.1,31.6,29.74,NNW,338,0.0,0.0,34,0.00,CLR,SCT,0.00,0.0,WeatherDisplay:10.37,2013-04-07 02:15:00,
2013-04-06 21:20:00,59.7,31.3,29.74,NNW,338,0.0,0.0,34,0.00,CLR,SCT,0.00,0.0,WeatherDisplay:10.37,2013-04-07 02:20:00,
2013-04-06 21:25:00,59.4,31.7,29.74,NNW,338,0.0,0.0,35,0.00,CLR,SCT,0.00,0.0,WeatherDisplay:10.37,2013-04-07 02:25:00,
2013-04-06 21:30:00,59.0,31.4,29.74,NNW,338,0.0,0.0,35,0.00,CLR,SCT,0.00,0.0,WeatherDisplay:10.37,2013-04-07 02:30:00,
2013-04-06 21:35:00,58.6,31.7,29.74,NNW,338,0.0,0.0,36,0.00,CLR,SCT,0.00,0.0,WeatherDisplay:10.37,2013-04-07 02:35:00,
2013-04-06 21:42:00,58.3,32.1,29.74,NNW,338,0.0,0.0,37,0.00,CLR,SCT,0.00,0.0,WeatherDisplay:10.37,2013-04-07 02:42:00,
2013-04-06 21:47:00,57.9,31.1,29.74,NNW,338,0.0,0.0,36,0.00,CLR,SCT,0.00,0.0,WeatherDisplay:10.37,2013-04-07 02:47:00,
2013-04-06 21:52:00,57.7,30.9,29.74,NNW,338,0.0,0.0,36,0.00,CLR,SCT,0.00,0.0,WeatherDisplay:10.37,2013-04-07 02:52:00,
2013-04-06 21:57:00,57.6,31.5,29.74,NNW,338,0.0,0.0,37,0.00,CLR,SCT,0.00,0.0,WeatherDisplay:10.37,2013-04-07 02:57:00,
2013-04-06 22:02:00,57.2,31.1,29.74,NNW,338,0.0,0.0,37,0.00,CLR,SCT,0.00,0.0,WeatherDisplay:10.37,2013-04-07 03:02:00,
2013-04-06 22:07:00,57.2,31.1,29.74,NNW,338,0.0,0.0,37,0.00,CLR,SCT,0.00,0.0,WeatherDisplay:10.37,2013-04-07 03:07:00,
2013-04-06 22:12:00,57.0,32.3,29.74,NNW,338,0.0,0.0,39,0.00,CLR,SCT,0.00,0.0,WeatherDisplay:10.37,2013-04-07 03:12:00,
2013-04-06 22:17:00,56.8,32.1,29.77,NNW,338,0.0,0.0,39,0.00,CLR,SCT,0.00,0.0,WeatherDisplay:10.37,2013-04-07 03:17:00,
2013-04-06 22:22:00,56.8,32.8,29.77,WNW,292,0.0,0.9,40,0.00,CLR,SCT,0.00,0.0,WeatherDisplay:10.37,2013-04-07 03:22:00,
2013-04-06 22:27:00,56.7,32.0,29.77,WNW,292,0.0,1.6,39,0.00,CLR,SCT,0.00,0.0,WeatherDisplay:10.37,2013-04-07 03:27:00,
2013-04-06 22:32:00,56.3,32.3,29.77,WNW,292,0.0,0.0,40,0.00,CLR,SCT,0.00,0.0,WeatherDisplay:10.37,2013-04-07 03:32:00,
2013-04-06 22:37:00,56.1,32.7,29.77,WNW,292,0.0,0.0,41,0.00,CLR,SCT,0.00,0.0,WeatherDisplay:10.37,2013-04-07 03:37:00,
2013-04-06 22:43:00,55.9,32.6,29.77,WNW,292,0.0,0.0,41,0.00,CLR,SCT,0.00,0.0,WeatherDisplay:10.37,2013-04-07 03:43:00,
2013-04-06 22:48:00,55.6,32.8,29.77,WNW,292,0.0,0.0,42,0.00,CLR,SCT,0.00,0.0,WeatherDisplay:10.37,2013-04-07 03:48:00,
2013-04-06 22:53:00,55.6,32.8,29.77,WNW,292,0.0,0.0,42,0.00,CLR,SCT,0.00,0.0,WeatherDisplay:10.37,2013-04-07 03:53:00,
2013-04-06 22:59:00,55.4,32.7,29.77,WNW,292,0.0,0.0,42,0.00,CLR,SCT,0.00,0.0,WeatherDisplay:10.37,2013-04-07 03:59:00,
2013-04-06 23:00:00,55.4,32.7,29.77,WNW,292,0.0,0.0,42,0.00,CLR,SCT,0.00,0.0,WeatherDisplay:10.37,2013-04-07 04:00:00,
2013-04-06 23:01:00,55.4,33.3,29.77,WNW,292,0.0,0.0,43,0.00,CLR,SCT,0.00,0.0,WeatherDisplay:10.37,2013-04-07 04:01:00,
2013-04-06 23:03:00,55.2,33.1,29.77,WNW,292,0.0,0.0,43,0.00,CLR,SCT,0.00,0.0,WeatherDisplay:10.37,2013-04-07 04:03:00,
2013-04-06 23:08:00,55.0,32.3,29.77,WNW,292,0.0,0.0,42,0.00,CLR,SCT,0.00,0.0,WeatherDisplay:10.37,2013-04-07 04:08:00,
2013-04-06 23:13:00,54.9,31.6,29.77,WNW,292,0.0,0.0,41,0.00,CLR,SCT,0.00,0.0,WeatherDisplay:10.37,2013-04-07 04:13:00,
2013-04-06 23:19:00,54.7,32.0,29.77,East,90,0.0,1.1,42,0.00,CLR,SCT,0.00,0.0,WeatherDisplay:10.37,2013-04-07 04:19:00,
2013-04-06 23:24:00,54.5,31.9,29.77,East,90,0.0,2.3,42,0.00,CLR,SCT,0.00,0.0,WeatherDisplay:10.37,2013-04-07 04:24:00,
2013-04-06 23:29:00,54.0,31.4,29.77,East,90,1.1,1.1,42,0.00,CLR,SCT,0.00,0.0,WeatherDisplay:10.37,2013-04-07 04:29:00,
2013-04-06 23:35:00,53.6,31.0,29.77,East,90,0.0,0.0,42,0.00,CLR,SCT,0.00,0.0,WeatherDisplay:10.37,2013-04-07 04:35:00,
2013-04-06 23:40:00,53.6,31.6,29.77,East,90,0.0,0.0,43,0.00,CLR,SCT,0.00,0.0,WeatherDisplay:10.37,2013-04-07 04:40:00,
2013-04-06 23:45:00,53.4,32.0,29.77,East,90,0.0,0.0,44,0.00,CLR,SCT,0.00,0.0,WeatherDisplay:10.37,2013-04-07 04:45:00,
2013-04-06 23:50:00,53.1,33.9,29.77,East,90,0.0,0.0,48,0.00,CLR,SCT,0.00,0.0,WeatherDisplay:10.37,2013-04-07 04:50:00,
2013-04-06 23:55:00,52.9,34.2,29.77,West,270,1.1,1.4,49,0.00,CLR,SCT,0.00,0.0,WeatherDisplay:10.37,2013-04-07 04:55:00,